timestamp,surface_pressure_avg,surface_temp_avg,battery_voltage,lat,long
2018-03-11 00:00:00+00:00,231.0414,1.2,12.89,47.84626,-54.09684
2018-03-11 00:10:00+00:00,235.0731,1.2,12.89,47.84626,-54.09684
2018-03-11 00:20:00+00:00,243.8631,1.2,12.97,47.84626,-54.09684
2018-03-11 00:30:00+00:00,239.7665,1.2,12.97,47.84626,-54.09684
2018-03-11 00:40:00+00:00,238.6948,1.2,12.97,47.84626,-54.09684
2018-03-11 00:50:00+00:00,244.5731,1.2,12.97,47.84626,-54.09684
2018-03-11 01:00:00+00:00,247.7314,1.2,12.89,47.84626,-54.09684
2018-03-11 01:10:00+00:00,241.8831,1.2,12.81,47.84626,-54.09684
2018-03-11 01:20:00+00:00,233.4964,1.2,12.89,47.84626,-54.09684
2018-03-11 01:30:00+00:00,234.4714,1.2,12.89,47.84626,-54.09684
2018-03-11 01:40:00+00:00,243.2314,1.2,12.97,47.84626,-54.09684
2018-03-11 01:50:00+00:00,239.1531,1.2,12.97,47.84626,-54.09684
2018-03-11 02:00:00+00:00,237.7431,1.2,12.89,47.84626,-54.09684
2018-03-11 02:10:00+00:00,247.3264,1.2,12.81,47.84626,-54.09684
2018-03-11 02:20:00+00:00,251.5247,1.2,12.89,47.84626,-54.09684
2018-03-11 02:30:00+00:00,246.9148,1.2,12.89,47.84626,-54.09684
2018-03-11 02:40:00+00:00,245.5364,1.2,12.89,47.84626,-54.09684
2018-03-11 02:50:00+00:00,250.7747,1.2,12.97,47.84626,-54.09684
2018-03-11 03:00:00+00:00,251.1364,1.2,12.89,47.84626,-54.09684
2018-03-11 03:10:00+00:00,251.3114,1.2,12.81,47.84626,-54.09684
2018-03-11 03:20:00+00:00,253.3864,1.2,12.89,47.84626,-54.09684
2018-03-11 03:30:00+00:00,257.4414,1.2,12.89,47.84626,-54.09684
2018-03-11 03:40:00+00:00,263.3114,1.2,12.89,47.84626,-54.09684
2018-03-11 03:50:00+00:00,272.5414,1.2,12.89,47.84626,-54.09684
2018-03-11 04:00:00+00:00,275.6263,1.2,12.81,47.84626,-54.09684
2018-03-11 04:10:00+00:00,280.8047,1.2,12.81,47.84626,-54.09684
2018-03-11 04:20:00+00:00,290.323,1.2,12.89,47.84626,-54.09684
2018-03-11 04:30:00+00:00,300.2063,1.2,12.89,47.84626,-54.09684
2018-03-11 04:40:00+00:00,300.0648,1.2,12.89,47.84626,-54.09684
2018-03-11 04:50:00+00:00,301.1614,1.2,12.89,47.84626,-54.09684
2018-03-11 05:00:00+00:00,309.4963,1.2,12.81,47.84626,-54.09684
2018-03-11 05:10:00+00:00,318.9147,1.2,12.81,47.84626,-54.09684
2018-03-11 05:20:00+00:00,318.8864,1.21,12.89,47.84626,-54.09684
2018-03-11 05:30:00+00:00,316.8947,1.22,12.89,47.84626,-54.09684
2018-03-11 05:40:00+00:00,321.6464,1.2,12.89,47.84626,-54.09684
2018-03-11 05:50:00+00:00,327.6813,1.21,12.89,47.84626,-54.09684
2018-03-11 06:00:00+00:00,325.9197,1.23,12.81,47.84626,-54.09684
2018-03-11 06:10:00+00:00,326.723,1.22,12.73,47.84626,-54.09684
2018-03-11 06:20:00+00:00,329.588,1.21,12.81,47.84626,-54.09684
2018-03-11 06:30:00+00:00,327.6896,1.24,12.81,47.84626,-54.09684
2018-03-11 06:40:00+00:00,322.7463,1.23,12.89,47.84626,-54.09684
2018-03-11 06:50:00+00:00,325.1913,1.23,12.89,47.84626,-54.09684
2018-03-11 07:00:00+00:00,329.173,1.25,12.81,47.84626,-54.09684
2018-03-11 07:10:00+00:00,325.4963,1.2,12.73,47.84626,-54.09684
2018-03-11 07:20:00+00:00,319.5381,1.2,12.81,47.84626,-54.09684
2018-03-11 07:30:00+00:00,320.3229,1.2,12.81,47.84626,-54.09684
2018-03-11 07:40:00+00:00,321.148,1.2,12.81,47.84626,-54.09684
2018-03-11 07:50:00+00:00,319.8846,1.2,12.89,47.84626,-54.09684
2018-03-11 08:00:00+00:00,320.6096,1.2,12.81,47.84626,-54.09684
2018-03-11 08:10:00+00:00,320.4197,1.2,12.73,47.84626,-54.09684
2018-03-11 08:20:00+00:00,317.798,1.21,12.81,47.84626,-54.09684
2018-03-11 08:30:00+00:00,317.2813,1.23,12.81,47.84626,-54.09684
2018-03-11 08:40:00+00:00,315.4914,1.2,12.81,47.84626,-54.09684
2018-03-11 08:50:00+00:00,308.273,1.2,12.81,47.84626,-54.09684
2018-03-11 09:00:00+00:00,304.793,1.2,12.81,47.84626,-54.09684
2018-03-11 09:10:00+00:00,301.2547,1.2,12.73,47.84626,-54.09684
2018-03-11 09:20:00+00:00,296.0731,1.2,12.81,47.84626,-54.09684
2018-03-11 09:30:00+00:00,294.5247,1.2,12.81,47.84626,-54.09684
2018-03-11 09:40:00+00:00,289.6647,1.2,12.81,47.84626,-54.09684
2018-03-11 09:50:00+00:00,279.5547,1.2,12.81,47.84626,-54.09684
2018-03-11 10:00:00+00:00,274.3914,1.1,12.81,47.84626,-54.09684
2018-03-11 10:10:00+00:00,275.7797,1.1,12.73,47.84626,-54.09684
2018-03-11 10:20:00+00:00,270.0648,1.1,12.81,47.84626,-54.09684
2018-03-11 10:30:00+00:00,260.4264,1.1,12.81,47.84626,-54.09684
2018-03-11 10:40:00+00:00,260.2614,1.07,12.89,47.84626,-54.09684
2018-03-11 10:50:00+00:00,259.898,1.07,12.89,47.84626,-54.09684
2018-03-11 11:00:00+00:00,252.6198,1.08,12.81,47.84626,-54.09684
2018-03-11 11:10:00+00:00,247.433,1.09,12.81,47.84626,-54.09684
2018-03-11 11:20:00+00:00,251.2814,1.08,12.97,47.84626,-54.09684
2018-03-11 11:30:00+00:00,251.9514,1.1,12.97,47.84626,-54.09684
2018-03-11 11:40:00+00:00,245.4214,1.1,13.05,47.84626,-54.09684
2018-03-11 11:50:00+00:00,241.4847,1.18,13.05,47.84626,-54.09684
2018-03-11 12:00:00+00:00,247.4064,1.2,13.05,47.84626,-54.09684
2018-03-11 12:10:00+00:00,247.8097,1.19,13.05,47.84626,-54.09684
2018-03-11 12:20:00+00:00,243.233,1.19,13.13,47.84626,-54.09684
2018-03-11 12:30:00+00:00,243.4981,1.2,13.13,47.84626,-54.09684
2018-03-11 12:40:00+00:00,249.2097,1.2,13.21,47.84626,-54.09684
2018-03-11 12:50:00+00:00,247.4598,1.2,13.29,47.84626,-54.09684
2018-03-11 13:00:00+00:00,242.803,1.19,13.37,47.84626,-54.09684
2018-03-11 13:10:00+00:00,241.9564,1.19,13.29,47.84626,-54.09684
2018-03-11 13:20:00+00:00,247.0447,1.2,13.37,47.84626,-54.09684
2018-03-11 13:30:00+00:00,249.6281,1.19,13.44,47.84626,-54.09684
2018-03-11 13:40:00+00:00,246.0797,1.2,13.37,47.84626,-54.09684
2018-03-11 13:50:00+00:00,243.4597,1.2,13.44,47.84626,-54.09684
2018-03-11 14:00:00+00:00,243.7164,1.2,13.29,47.84626,-54.09684
2018-03-11 14:10:00+00:00,242.3931,1.2,13.29,47.84626,-54.09684
2018-03-11 14:20:00+00:00,240.3964,1.2,13.53,47.84626,-54.09684
2018-03-11 14:30:00+00:00,243.1364,1.2,13.6,47.84626,-54.09684
2018-03-11 14:40:00+00:00,245.0314,1.2,13.68,47.84626,-54.09684
2018-03-11 14:50:00+00:00,243.783,1.2,13.68,47.84626,-54.09684
2018-03-11 15:00:00+00:00,244.3914,1.2,13.6,47.84626,-54.09684
2018-03-11 15:10:00+00:00,245.2331,1.2,13.44,47.84626,-54.09684
2018-03-11 15:20:00+00:00,243.5248,1.2,13.44,47.84626,-54.09684
2018-03-11 15:30:00+00:00,245.2348,1.2,13.44,47.84626,-54.09684
2018-03-11 15:40:00+00:00,251.0497,1.2,13.37,47.84626,-54.09684
2018-03-11 15:50:00+00:00,252.7464,1.19,13.53,47.84626,-54.09684
2018-03-11 16:00:00+00:00,253.4081,1.2,13.44,47.84626,-54.09684
2018-03-11 16:10:00+00:00,255.4714,1.2,13.37,47.84626,-54.09684
2018-03-11 16:20:00+00:00,260.0531,1.2,13.44,47.84626,-54.09684
2018-03-11 16:30:00+00:00,261.6581,1.2,13.44,47.84626,-54.09684
2018-03-11 16:40:00+00:00,264.2614,1.2,13.44,47.84626,-54.09684
2018-03-11 16:50:00+00:00,266.1364,1.2,13.44,47.84626,-54.09684
2018-03-11 17:00:00+00:00,271.3914,1.2,13.44,47.84626,-54.09684
2018-03-11 17:10:00+00:00,273.5147,1.2,13.37,47.84626,-54.09684
2018-03-11 17:20:00+00:00,275.6548,1.2,13.53,47.84626,-54.09684
2018-03-11 17:30:00+00:00,277.6398,1.2,13.53,47.84626,-54.09684
2018-03-11 17:40:00+00:00,280.5081,1.2,13.53,47.84626,-54.09684
2018-03-11 17:50:00+00:00,283.4414,1.2,13.44,47.84626,-54.09684
2018-03-11 18:00:00+00:00,288.3964,1.2,13.37,47.84626,-54.09684
2018-03-11 18:10:00+00:00,288.9464,1.29,13.29,47.84626,-54.09684
2018-03-11 18:20:00+00:00,289.4697,1.3,13.44,47.84626,-54.09684
2018-03-11 18:30:00+00:00,291.7913,1.3,13.44,47.84626,-54.09684
2018-03-11 18:40:00+00:00,293.4564,1.3,13.44,47.84626,-54.09684
2018-03-11 18:50:00+00:00,293.5547,1.3,13.53,47.84626,-54.09684
2018-03-11 19:00:00+00:00,298.938,1.3,13.37,47.84626,-54.09684
2018-03-11 19:10:00+00:00,301.2781,1.3,13.21,47.84626,-54.09684
2018-03-11 19:20:00+00:00,296.1898,1.3,13.29,47.84626,-54.09684
2018-03-11 19:30:00+00:00,295.6563,1.3,13.29,47.84626,-54.09684
2018-03-11 19:40:00+00:00,301.7413,1.3,13.29,47.84626,-54.09684
2018-03-11 19:50:00+00:00,303.5496,1.3,13.29,47.84626,-54.09684
2018-03-11 20:00:00+00:00,299.1714,1.3,13.21,47.84626,-54.09684
2018-03-11 20:10:00+00:00,297.5963,1.3,13.05,47.84626,-54.09684
2018-03-11 20:20:00+00:00,300.4864,1.3,13.13,47.84626,-54.09684
2018-03-11 20:30:00+00:00,297.8797,1.3,13.13,47.84626,-54.09684
2018-03-11 20:40:00+00:00,295.0497,1.3,13.13,47.84626,-54.09684
2018-03-11 20:50:00+00:00,298.7497,1.3,13.13,47.84626,-54.09684
2018-03-11 21:00:00+00:00,300.0131,1.3,13.05,47.84626,-54.09684
2018-03-11 21:10:00+00:00,292.303,1.3,12.97,47.84626,-54.09684
2018-03-11 21:20:00+00:00,290.1564,1.3,12.97,47.84626,-54.09684
2018-03-11 21:30:00+00:00,293.6464,1.3,12.97,47.84626,-54.09684
2018-03-11 21:40:00+00:00,288.4797,1.3,12.97,47.84626,-54.09684
2018-03-11 21:50:00+00:00,282.6931,1.3,12.97,47.84626,-54.09684
2018-03-11 22:00:00+00:00,286.0114,1.3,12.97,47.84626,-54.09684
2018-03-11 22:10:00+00:00,284.2731,1.3,12.89,47.84626,-54.09684
2018-03-11 22:20:00+00:00,271.123,1.3,12.97,47.84626,-54.09684
2018-03-11 22:30:00+00:00,264.7581,1.3,12.97,47.84626,-54.09684
2018-03-11 22:40:00+00:00,264.9897,1.3,12.97,47.84626,-54.09684
2018-03-11 22:50:00+00:00,259.4081,1.3,12.97,47.84626,-54.09684
2018-03-11 23:00:00+00:00,250.7147,1.35,12.89,47.84626,-54.09684
2018-03-11 23:10:00+00:00,249.7681,1.39,12.81,47.84626,-54.09684
2018-03-11 23:20:00+00:00,250.8414,1.39,12.97,47.84626,-54.09684
2018-03-11 23:30:00+00:00,244.4831,1.39,12.97,47.84626,-54.09684
2018-03-11 23:40:00+00:00,237.9464,1.4,12.97,47.84626,-54.09684
2018-03-11 23:50:00+00:00,238.3247,1.39,12.97,47.84626,-54.09684
